DW5444 Weather Reports


time (UTC)temp
C
wind
direction
speed
KPH
gust
KPH
rain 1hr
cm
rain 24hr
cm
rain mn
cm
humidity
%
barometer
mb
20260505210004 22 5 6.4 19.3 0.00 0.00 0.00 43 1010.2
20260505204502 22 283 6.4 19.3 0.00 0.00 0.00 40 1010.2
20260505203104 22 324 6.4 14.5 0.00 0.00 0.00 41 1010.2
20260505201608 22 350 8.0 17.7 0.00 0.00 0.00 42 1010.2
20260505200104 21 28 3.2 14.5 0.00 0.00 0.00 47 1010.2
20260505194603 21 34 3.2 12.9 0.00 0.00 0.00 47 1010.2
20260505193052 21 260 6.4 14.5 0.00 0.00 0.00 51 1010.2
20260505191553 20 261 1.6 12.9 0.00 0.00 0.00 48 1010.4
20260505190051 20 303 4.8 11.3 0.00 0.00 0.00 49 1010.4
20260505184546 20 291 8.0 14.5 0.00 0.00 0.00 56 1010.3
20260505183048 20 316 6.4 14.5 0.00 0.00 0.00 57 1010.3
20260505181541 19 257 4.8 12.9 0.00 0.00 0.00 55 1010.4
20260505180037 18 277 4.8 12.9 0.00 0.00 0.00 59 1010.3
20260505174534 18 308 8.0 12.9 0.00 0.00 0.00 61 1010.3
20260505173039 18 270 6.4 16.1 0.00 0.00 0.00 65 1010.2
20260505171533 17 272 6.4 14.5 0.00 0.00 0.00 64 1010.2
20260505170033 17 281 9.7 14.5 0.00 0.00 0.00 67 1010.1
20260505164527 17 286 8.0 16.1 0.00 0.00 0.00 66 1010.0
20260505163026 17 279 8.0 12.9 0.00 0.00 0.00 66 1009.9
20260505161527 17 254 8.0 12.9 0.00 0.00 0.00 64 1009.9
20260505153017 16 229 9.7 16.1 0.00 0.00 0.00 67 1009.7
20260505151511 15 261 8.0 11.3 0.00 0.00 0.00 68 1009.6
20260505140124 14 196 1.6 6.4 0.00 0.00 0.00 72 1009.0
20260505124558 11 137 3.2 11.3 0.00 0.00 0.00 80 1008.5
20260505123048 11 153 4.8 6.4 0.00 0.00 0.00 79 1008.2
20260505121547 11 134 3.2 6.4 0.00 0.00 0.00 78 1008.1
20260505120049 11 184 3.2 6.4 0.00 0.00 0.00 77 1008.1
20260505114544 12 174 3.2 8.0 0.00 0.00 0.00 75 1007.9
20260505113035 12 142 3.2 6.4 0.00 0.00 0.00 74 1007.8
20260505111534 13 198 1.6 12.9 0.00 0.00 0.00 72 1007.8
20260505101528 13 145 3.2 6.4 0.00 0.00 0.00 72 1007.6
20260505100028 13 188 3.2 6.4 0.00 0.00 0.00 72 1007.6
20260505094530 13 195 3.2 6.4 0.00 0.00 0.00 73 1007.5
20260505093024 13 156 3.2 6.4 0.00 0.00 0.00 73 1007.4
20260505091520 13 157 3.2 6.4 0.00 0.00 0.00 72 1007.2
20260505090021 13 132 1.6 6.4 0.00 0.00 0.00 71 1007.1
20260505084532 13 146 3.2 6.4 0.00 0.00 0.00 70 1007.2
20260505083019 13 149 3.2 8.0 0.00 0.00 0.00 70 1007.1
20260505081514 14 209 3.2 6.4 0.00 0.00 0.00 68 1007.1
20260505080015 14 209 4.8 11.3 0.00 0.00 0.00 67 1007.0
20260505074511 14 223 3.2 8.0 0.00 0.00 0.00 69 1007.0
20260505073010 13 180 3.2 8.0 0.00 0.00 0.00 70 1006.9
20260505071508 14 177 3.2 9.7 0.00 0.00 0.00 70 1006.8
20260505070005 15 132 1.6 8.0 0.00 0.00 0.00 68 1006.7
20260505064506 15 227 4.8 14.5 0.00 0.00 0.00 67 1006.6
20260505063006 15 239 4.8 11.3 0.00 0.00 0.00 68 1006.6
20260505061502 15 215 6.4 12.9 0.00 0.00 0.00 68 1006.7
20260505060002 15 225 4.8 9.7 0.00 0.00 0.00 67 1006.6
20260505054611 15 207 6.4 9.7 0.00 0.00 0.00 67 1006.6
20260505053001 15 227 6.4 11.3 0.00 0.00 0.00 66 1006.5
20260505051600 15 234 6.4 9.7 0.00 0.00 0.00 64 1006.5
20260505041600 15 164 4.8 6.4 0.00 0.00 0.00 61 1006.3
20260505040058 13 185 1.6 8.0 0.00 0.00 0.00 64 1006.1
20260505034557 11 83 4.8 6.4 0.00 0.00 0.00 71 1005.6
20260505033057 12 77 4.8 6.4 0.00 0.00 0.00 71 1005.5
20260505031605 12 83 6.4 6.4 0.00 0.00 0.00 72 1005.4
20260505030054 15 83 4.8 6.4 0.00 0.00 0.00 67 1005.2
20260505024602 17 77 3.2 4.8 0.00 0.00 0.00 59 1005.1
20260505023052 21 121 0.0 1.6 0.00 0.00 0.00 44 1005.1
20260505021554 23 47 0.0 1.6 0.00 0.00 0.00 38 1005.2
20260505020051 23 25 0.0 4.8 0.00 0.00 0.00 35 1005.2
20260505014604 23 297 1.6 6.4 0.00 0.00 0.00 36 1005.2
20260505013051 24 329 3.2 8.0 0.00 0.00 0.00 34 1005.4
20260505011556 24 324 4.8 16.1 0.00 0.00 0.00 31 1005.5
20260505010046 25 353 4.8 9.7 0.00 0.00 0.00 31 1005.6
20260505004545 24 355 4.8 12.9 0.00 0.00 0.00 29 1005.7
20260505003044 24 299 3.2 12.9 0.00 0.00 0.00 32 1005.7
20260505001543 24 315 6.4 16.1 0.00 0.00 0.00 29 1005.7
20260505000054 24 311 11.3 20.9 0.00 0.00 0.00 27 1005.9
20260504234547 24 303 3.2 11.3 0.00 0.00 0.00 30 1005.9
20260504233100 24 313 3.2 17.7 0.00 0.00 0.00 29 1005.9
20260504231540 24 315 3.2 12.9 0.00 0.00 0.00 28 1006.0
20260504230038 24 41 4.8 12.9 0.00 0.00 0.00 30 1006.1
20260504224539 24 305 6.4 11.3 0.00 0.00 0.00 31 1006.3
20260504223053 24 58 4.8 16.1 0.00 0.00 0.00 30 1006.4
20260504221536 25 346 6.4 16.1 0.00 0.00 0.00 30 1006.6
20260504220031 24 296 4.8 12.9 0.00 0.00 0.00 32 1006.7
20260504214531 23 346 3.2 17.7 0.00 0.00 0.00 33 1006.8
20260504213040 23 317 8.0 19.3 0.00 0.00 0.00 30 1006.9
20260504211533 23 308 8.0 16.1 0.00 0.00 0.00 30 1006.9